This demonstration page uses our WeatherBlox Daily Observations layout. Learn more.

Left ArrowRight Arrow

Hourly Observations for October 24, 2022

Temp ( °F °C ) Dew Point ( °F °C ) Humidity (%) Winds ( mph kmh ) Pressure ( in mb ) Visibility ( mi km ) Precip ( " mm )
12:53 am 00:53 Cloudy with Light Snow 32 0 30 -1.1 92 92 NW 7 11 30.04 1017 N/A 0.01 0.13
1:53 am 01:53 Mostly Cloudy with Light Snow 31 -0.6 29 -1.7 92 92 W 7 11 30.03 1017 N/A 0.01 0.13
2:23 am 02:23 Mostly Cloudy with Light Snow 31 -0.6 29 -1.7 92 92 W 8 13 30.06 1018 N/A 0.01 0.13
2:44 am 02:44 Mostly Cloudy with Light Snow 30 -1.1 28 -2.2 92 92 W 7 11 30.06 1018 N/A 0.01 0.13
2:53 am 02:53 Mostly Cloudy with Light Snow 29 -1.7 27 -2.8 92 92 WNW 6 9 30.02 1017 N/A 0.01 0.13
3:01 am 03:01 Partly Cloudy with Scattered Snow Showers 28 -2.2 26 -3.3 92 92 W 6 9 30.07 1018 N/A 0.01 0.13
3:49 am 03:49 Mostly Cloudy with Light Snow 28 -2 27 -3 93 93 WSW 9 15 30.06 1018 N/A 0.01 0.13
3:53 am 03:53 Mostly Cloudy with Light Snow 29 -1.7 27 -2.8 92 92 W 10 17 30.02 1017 N/A 0.01 0.13
4:43 am 04:43 Partly Cloudy 26 -3.3 25 -3.9 96 96 WSW 3 6 30.06 1018 N/A 0.01 0.13
4:53 am 04:53 Clear 26 -3.3 24 -4.4 92 92 SW 8 13 30.00 1016 N/A 0.01 0.13
5:53 am 05:53 Partly Cloudy 25 -3.9 23 -5 92 92 W 5 7 29.99 1016 N/A 0.00 0.00
6:12 am 06:12 Mostly Cloudy 25 -3.9 24 -4.4 96 96 W 5 7 30.04 1017 N/A 0.00 0.00
6:19 am 06:19 Mostly Cloudy 27 -2.8 25 -3.9 92 92 WNW 5 7 30.02 1017 N/A 0.00 0.00
6:27 am 06:27 Mostly Cloudy 27 -2.8 25 -3.9 92 92 NW 6 9 30.02 1017 N/A 0.00 0.00
6:53 am 06:53 Cloudy 28 -2.2 27 -2.8 96 96 NW 6 9 29.96 1015 N/A 0.00 0.00
7:53 am 07:53 Cloudy 27 -2.8 27 -2.8 100 100 Calm 29.94 1014 N/A 0.00 0.00
8:53 am 08:53 Cloudy 27 -2.8 26 -3.3 96 96 Calm 29.92 1013 N/A 0.00 0.00
9:53 am 09:53 Mostly Cloudy 30 -1.1 29 -1.7 96 96 Calm 29.89 1012 N/A 0.00 0.00
10:05 am 10:05 Partly Cloudy 31 -0.6 30 -1.1 96 96 SW 3 6 29.92 1013 N/A 0.00 0.00
10:53 am 10:53 Sunny 37 2.8 32 0 82 82 SW 15 24 29.85 1011 N/A 0.00 0.00
11:53 am 11:53 Sunny 40 4.4 34 1.1 79 79 SW 18 30 29.81 1010 N/A 0.00 0.00
12:53 pm 12:53 Sunny 45 7.2 35 1.7 68 68 SW 22 35 29.79 1009 N/A 0.00 0.00
1:53 pm 13:53 Sunny 48 8.9 34 1.1 58 58 WSW 20 31 29.75 1008 N/A 0.00 0.00
2:53 pm 14:53 Sunny 49 9.4 33 0.6 54 54 WSW 20 31 29.73 1007 N/A 0.00 0.00
3:53 pm 15:53 Cloudy 47 8.3 33 0.6 58 58 WSW 14 22 29.73 1007 N/A 0.00 0.00
4:53 pm 16:53 Cloudy 46 7.8 32 0 58 58 SW 17 28 29.72 1006 N/A 0.00 0.00
5:53 pm 17:53 Cloudy 44 6.7 32 0 62 62 WSW 15 24 29.72 1007 N/A 0.00 0.00
6:53 pm 18:53 Cloudy 43 6.1 32 0 65 65 SW 15 24 29.71 1006 N/A 0.00 0.00
7:53 pm 19:53 Cloudy 41 5 32 0 70 70 SW 17 28 29.72 1007 N/A 0.00 0.00
8:53 pm 20:53 Mostly Cloudy 39 3.9 32 0 76 76 SW 16 26 29.72 1007 N/A 0.00 0.00
9:53 pm 21:53 Mostly Clear 39 3.9 31 -0.6 72 72 SW 18 30 29.73 1007 N/A 0.00 0.00
10:53 pm 22:53 Partly Cloudy 38 3.3 31 -0.6 76 76 SW 21 33 29.72 1007 N/A 0.00 0.00
11:53 pm 23:53 Cloudy 39 3.9 31 -0.6 72 72 SW 21 33 29.73 1007 N/A 0.00 0.00

Powered by AerisWeather